This demonstration page uses our WeatherBlox Daily Observations layout. Learn more.

Left ArrowRight Arrow

34.16533, -84.80231

Hourly Observations for August 1, 2018

Temp ( °F °C ) Dew Point ( °F °C ) Humidity (%) Winds ( mph kmh ) Pressure ( in mb ) Visibility ( mi km ) Precip ( " mm )
12:53 am 00:53 Mostly Cloudy 69 20.6 69 20.6 100 100 Calm 30.00 1016 10 16 0.00 0.00
1:53 am 01:53 Cloudy 69 20.6 69 20.6 100 100 E 3 6 30.00 1016 10 16 0.00 0.00
2:01 am 02:01 Cloudy 69 20.6 69 20.6 100 100 Calm 30.03 1017 10 16 0.00 0.00
2:11 am 02:11 Cloudy 69 20.6 69 20.6 100 100 Calm 30.03 1017 10 16 0.00 0.00
2:53 am 02:53 Cloudy 69 20.6 69 20.6 100 100 Calm 30.01 1016 10 16 0.00 0.00
3:34 am 03:34 Mostly Cloudy 69 20.6 69 20.6 100 100 Calm 30.03 1017 10 16 0.00 0.00
3:53 am 03:53 Cloudy 69 20.6 69 20.6 100 100 Calm 29.99 1016 10 16 0.00 0.00
4:53 am 04:53 Cloudy with Light Rain 69 20.6 69 20.6 100 100 Calm 29.99 1016 8 13 0.00 0.00
5:53 am 05:53 Cloudy 69 20.6 69 20.6 100 100 Calm 30.01 1016 7 11 0.00 0.00
6:53 am 06:53 Cloudy 70 21.1 70 21.1 100 100 Calm 30.01 1016 8 13 0.00 0.00
7:30 am 07:30 Cloudy 70 21.1 70 21.1 100 100 SE 3 6 30.03 1017 8 13 0.00 0.00
7:53 am 07:53 Cloudy 70 21.1 70 21.1 100 100 Calm 30.00 1016 8 13 0.00 0.00
8:53 am 08:53 Cloudy with Rain 71 21.7 71 21.7 100 100 SSE 6 9 30.01 1016 4 6 0.00 0.00
9:53 am 09:53 Cloudy with Light Rain 73 22.8 72 22.2 96 96 VRB 6 9 30.02 1017 10 16 0.00 0.00
10:05 am 10:05 Cloudy with Light Rain 73 22.8 72 22.2 96 96 S 5 7 30.03 1017 10 16 0.00 0.00
10:32 am 10:32 Cloudy with Light Rain 74 23.3 73 22.8 97 97 S 3 6 30.03 1017 10 16 0.00 0.00
10:53 am 10:53 Cloudy with Light Rain 74 23.3 74 23.3 100 100 VRB 5 7 30.04 1017 10 16 0.00 0.00
11:07 am 11:07 Cloudy with Light Rain 74 23.3 73 22.8 97 97 S 6 9 30.03 1017 10 16 0.00 0.03
11:31 am 11:31 Cloudy with Light Rain 74 23.3 74 23.3 100 100 SSW 5 7 30.03 1017 9 14 0.00 0.03
11:43 am 11:43 Cloudy with Heavy Rain 73 22.8 73 22.8 100 100 SSE 8 13 30.03 1017 2 3 0.08 2.03
11:53 am 11:53 Cloudy with Rain 73 22.8 73 22.8 100 100 SSW 3 6 30.04 1017 2 3 0.12 3.05
12:01 pm 12:01 Cloudy with Light Rain 73 22.8 73 22.8 100 100 Calm 30.03 1017 4 6 0.01 0.25
12:29 pm 12:29 Cloudy with Light Rain 72 22.2 72 22.2 100 100 VRB 7 11 30.03 1017 9 14 0.02 0.51
12:39 pm 12:39 Cloudy with Light Rain 70 21.1 70 21.1 100 100 VRB 3 6 30.03 1017 4 6 0.03 0.76
12:51 pm 12:51 Cloudy with Light Rain 70 21 70 21 100 100 VRB 3 6 30.03 1017 7 11 0.04 1.02
12:53 pm 12:53 Cloudy with Light Rain 70 21.1 70 21.1 100 100 Calm 30.04 1017 5 8 0.05 1.27
12:56 pm 12:56 Cloudy with Heavy Rain 70 21.1 70 21.1 100 100 VRB 3 6 30.03 1017 2 3 0.03 0.76
1:04 pm 13:04 Cloudy with Heavy Rain 69 20.6 69 20.6 100 100 VRB 3 6 30.03 1017 0 0 0.28 7.11
1:11 pm 13:11 Cloudy with Heavy Rain 69 20.6 69 20.6 100 100 VRB 5 7 30.03 1017 1 1 0.37 9.40
1:21 pm 13:21 Cloudy with Heavy Rain 69 20.6 69 20.6 100 100 N 5 7 30.03 1017 2 2 0.43 10.92
1:38 pm 13:38 Cloudy with Heavy Rain 69 20.6 69 20.6 100 100 Calm 30.06 1018 1 1 0.65 16.51
1:53 pm 13:53 Cloudy with Heavy Rain 69 20.6 69 20.6 100 100 E 5 7 30.05 1018 1 2 0.78 19.81
2:04 pm 14:04 Cloudy with Light Rain 69 20.6 69 20.6 100 100 NE 5 7 30.06 1018 3 4 0.03 0.76
2:13 pm 14:13 Cloudy with Light Rain 69 20.6 69 20.6 100 100 ENE 5 7 30.06 1018 5 8 0.03 0.76
2:18 pm 14:18 Cloudy with Light Rain 69 20.6 69 20.6 100 100 NE 5 7 30.03 1017 5 8 0.03 0.76
2:53 pm 14:53 Cloudy with Light Rain 70 21.1 70 21.1 100 100 NE 8 13 30.03 1017 10 16 0.04 1.02
3:18 pm 15:18 Cloudy with Heavy Rain 69 20.6 69 20.6 100 100 Calm 30.03 1017 3 4 0.05 1.27
3:23 pm 15:23 Cloudy with Heavy Rain 69 20.6 69 20.6 100 100 NNW 6 9 30.03 1017 2 3 0.07 1.78
3:37 pm 15:37 Cloudy with Light Rain 69 20.6 69 20.6 100 100 N 3 6 30.03 1017 2 3 0.15 3.81
3:43 pm 15:43 Cloudy with Light Rain 70 21.1 70 21.1 100 100 Calm 30.03 1017 4 6 0.15 3.81
3:53 pm 15:53 Cloudy with Light Rain 70 21.1 70 21.1 100 100 N 3 6 30.02 1017 6 10 0.16 4.06
4:10 pm 16:10 Cloudy with Light Rain 69 20.6 69 20.6 100 100 Calm 30.03 1017 8 13 0.01 0.25
4:21 pm 16:21 Cloudy with Rain 69 20.6 69 20.6 100 100 N 5 7 30.03 1017 2 3 0.06 1.52
4:29 pm 16:29 Cloudy with Heavy Rain 69 20.6 69 20.6 100 100 NNE 5 7 30.03 1017 1 1 0.17 4.32
4:41 pm 16:41 Cloudy with Heavy Rain 69 20.6 69 20.6 100 100 NNE 6 9 30.03 1017 1 2 0.30 7.62
4:53 pm 16:53 Cloudy with Heavy Rain 68 20 68 20 100 100 NNE 6 9 30.02 1017 1 2 0.42 10.67
5:04 pm 17:04 Cloudy with Rain 68 20 68 20 100 100 Calm 30.03 1017 2 3 0.06 1.52
5:11 pm 17:11 Cloudy with Heavy Rain 68 20 68 20 100 100 NNE 3 6 30.03 1017 2 2 0.12 3.05
5:26 pm 17:26 Cloudy with Rain 68 20 68 20 100 100 NE 3 6 30.03 1017 3 5 0.19 4.83
5:53 pm 17:53 Cloudy with Light Rain 69 20.6 69 20.6 100 100 VRB 3 6 30.01 1016 9 14 0.22 5.59
6:08 pm 18:08 Cloudy with Light Rain 70 21.1 70 21.1 100 100 VRB 3 6 30.03 1017 10 16 0.00 0.03
6:20 pm 18:20 Cloudy with Light Rain 70 21.1 70 21.1 100 100 E 5 7 30.03 1017 10 16 0.00 0.03
6:27 pm 18:27 Mostly Cloudy with Light Rain 70 21.1 70 21.1 100 100 Calm 30.03 1017 10 16 0.00 0.03
6:53 pm 18:53 Mostly Cloudy 71 21.7 71 21.7 100 100 ENE 3 6 29.98 1015 10 16 0.00 0.03
7:16 pm 19:16 Cloudy 71 21.7 71 21.7 100 100 E 3 6 30.03 1017 10 16 0.01 0.25
7:40 pm 19:40 Cloudy with Light Rain 71 21.7 71 21.7 100 100 E 3 6 30.03 1017 10 16 0.01 0.25
7:53 pm 19:53 Cloudy with Light Rain 71 21.7 71 21.7 100 100 Calm 30.00 1016 10 16 0.01 0.25
8:05 pm 20:05 Mostly Cloudy with Light Rain 71 21.7 71 21.7 100 100 NE 3 6 30.03 1017 10 16 0.00 0.03
8:53 pm 20:53 Mostly Cloudy with Light Rain 70 21.1 70 21.1 100 100 Calm 30.01 1016 8 13 0.03 0.76
9:53 pm 21:53 Mostly Cloudy with Light Rain 70 21.1 70 21.1 100 100 E 3 6 30.03 1017 10 16 0.05 1.27
10:53 pm 22:53 Mostly Cloudy with Light Rain 70 21.1 70 21.1 100 100 Calm 30.04 1017 10 16 0.00 0.03
11:53 pm 23:53 Mostly Cloudy 70 21.1 70 21.1 100 100 Calm 30.05 1018 10 16 0.00 0.03

Powered by AerisWeather